| time (UTC) | temp F | wind direction | speed MPH | gust MPH | rain 1hr in | rain 24hr in | rain mn in | humidity % | barometer mb |
| 20260507191200 | 67 | 329 | 3.0 | 6.0 | 0.00 | 0.31 | 0.31 | 32 | 1005.2 |
| 20260507185659 | 67 | 66 | 4.0 | 15.0 | 0.00 | 0.31 | 0.31 | 32 | 1004.9 |
| 20260507184157 | 64 | 103 | 2.0 | 10.0 | 0.00 | 0.31 | 0.31 | 35 | 1005.3 |
| 20260507182653 | 64 | 336 | 9.0 | 16.0 | 0.00 | 0.31 | 0.31 | 34 | 1005.5 |
| 20260507181154 | 63 | 342 | 3.0 | 16.0 | 0.00 | 0.31 | 0.31 | 39 | 1006.0 |
| 20260507175649 | 65 | 3 | 3.0 | 6.0 | 0.00 | 0.31 | 0.31 | 40 | 1006.0 |
| 20260507174147 | 64 | 194 | 2.0 | 13.0 | 0.00 | 0.31 | 0.31 | 45 | 1005.9 |
| 20260507172643 | 62 | 349 | 6.0 | 14.0 | 0.00 | 0.31 | 0.31 | 42 | 1005.9 |
| 20260507171138 | 61 | 321 | 9.0 | 13.0 | 0.00 | 0.31 | 0.31 | 43 | 1006.1 |
| 20260507165633 | 61 | 315 | 5.0 | 22.0 | 0.00 | 0.31 | 0.31 | 43 | 1006.5 |
| 20260507164129 | 62 | 312 | 2.0 | 7.0 | 0.00 | 0.31 | 0.31 | 48 | 1006.7 |
| 20260507162625 | 61 | 303 | 6.0 | 12.0 | 0.00 | 0.31 | 0.31 | 52 | 1006.5 |
| 20260507161121 | 62 | 352 | 0.0 | 7.0 | 0.00 | 0.31 | 0.31 | 57 | 1006.9 |
| 20260507155621 | 60 | 337 | 5.0 | 14.0 | 0.00 | 0.31 | 0.31 | 66 | 1007.0 |
| 20260507154118 | 60 | 3 | 6.0 | 8.0 | 0.00 | 0.31 | 0.31 | 65 | 1007.0 |
| 20260507152613 | 59 | 6 | 3.0 | 8.0 | 0.00 | 0.31 | 0.31 | 72 | 1007.1 |
| 20260507151109 | 57 | 303 | 2.0 | 6.0 | 0.00 | 0.31 | 0.31 | 77 | 1007.3 |
| 20260507145603 | 57 | 10 | 0.0 | 6.0 | 0.00 | 0.31 | 0.31 | 80 | 1007.6 |
| 20260507144101 | 56 | 340 | 6.0 | 10.0 | 0.00 | 0.31 | 0.31 | 80 | 1007.4 |
| 20260507142601 | 56 | 328 | 7.0 | 7.0 | 0.00 | 0.31 | 0.31 | 83 | 1007.6 |
| 20260507141057 | 55 | 2 | 4.0 | 14.0 | 0.00 | 0.31 | 0.31 | 81 | 1007.2 |
| 20260507135553 | 55 | 315 | 4.0 | 8.0 | 0.00 | 0.31 | 0.31 | 87 | 1007.7 |
| 20260507134049 | 53 | 353 | 0.0 | 9.0 | 0.00 | 0.31 | 0.31 | 91 | 1007.9 |
| 20260507132545 | 52 | 296 | 3.0 | 6.0 | 0.00 | 0.31 | 0.31 | 93 | 1007.6 |
| 20260507131042 | 52 | 261 | 4.0 | 10.0 | 0.00 | 0.31 | 0.31 | 93 | 1008.0 |
| 20260507125541 | 52 | 12 | 1.0 | 3.0 | 0.00 | 0.31 | 0.31 | 97 | 1007.6 |
| 20260507124038 | 50 | 241 | 2.0 | 8.0 | 0.00 | 0.31 | 0.31 | 99 | 1007.9 |
| 20260507122533 | 50 | 97 | 1.0 | 5.0 | 0.00 | 0.31 | 0.31 | 99 | 1007.8 |
| 20260507121032 | 50 | 337 | 0.0 | 3.0 | 0.00 | 0.31 | 0.31 | 99 | 1008.0 |
| 20260507115528 | 50 | 330 | 5.0 | 5.0 | 0.00 | 0.31 | 0.31 | 99 | 1007.8 |
| 20260507114023 | 50 | 14 | 0.0 | 2.0 | 0.02 | 0.31 | 0.31 | 99 | 1007.5 |
| 20260507112521 | 49 | 14 | 0.0 | 4.0 | 0.05 | 0.30 | 0.30 | 99 | 1007.4 |
| 20260507111016 | 49 | 0 | 0.0 | 3.0 | 0.07 | 0.29 | 0.29 | 99 | 1007.6 |
| 20260507105512 | 49 | 0 | 0.0 | 7.0 | 0.12 | 0.27 | 0.27 | 99 | 1007.7 |
| 20260507104008 | 49 | 11 | 2.0 | 7.0 | 0.00 | 0.25 | 0.25 | 99 | 1007.1 |
| 20260507102504 | 49 | 33 | 0.0 | 7.0 | 0.02 | 0.25 | 0.25 | 99 | 1006.7 |
| 20260507100958 | 49 | 324 | 3.0 | 8.0 | 0.02 | 0.24 | 0.24 | 99 | 1007.1 |
| 20260507095457 | 49 | 26 | 2.0 | 6.0 | 0.05 | 0.24 | 0.24 | 99 | 1007.3 |
| 20260507093952 | 50 | 313 | 3.0 | 5.0 | 0.02 | 0.23 | 0.23 | 99 | 1007.1 |
| 20260507092450 | 50 | 348 | 4.0 | 8.0 | 0.05 | 0.22 | 0.22 | 99 | 1007.0 |
| 20260507090945 | 49 | 5 | 3.0 | 8.0 | 0.07 | 0.21 | 0.21 | 99 | 1006.4 |
| 20260507085441 | 49 | 9 | 4.0 | 9.0 | 0.09 | 0.19 | 0.19 | 99 | 1006.7 |
| 20260507083938 | 49 | 348 | 4.0 | 11.0 | 0.02 | 0.17 | 0.17 | 99 | 1006.4 |
| 20260507082438 | 51 | 12 | 6.0 | 8.0 | 0.05 | 0.16 | 0.16 | 99 | 1006.3 |
| 20260507080935 | 52 | 352 | 3.0 | 8.0 | 0.09 | 0.15 | 0.15 | 99 | 1006.4 |
| 20260507075434 | 53 | 296 | 3.0 | 9.0 | 0.35 | 0.12 | 0.12 | 99 | 1006.3 |
| 20260507073931 | 53 | 270 | 2.0 | 6.0 | 0.14 | 0.04 | 0.04 | 99 | 1005.7 |
| 20260507072428 | 53 | 336 | 2.0 | 3.0 | 0.00 | 0.01 | 0.01 | 99 | 1005.5 |
| 20260507070924 | 53 | 120 | 1.0 | 2.0 | 0.00 | 0.01 | 0.01 | 99 | 1005.1 |
| 20260507065421 | 53 | 117 | 0.0 | 2.0 | 0.00 | 0.01 | 0.01 | 99 | 1005.1 |
| 20260507063920 | 53 | 10 | 3.0 | 3.0 | 0.00 | 0.01 | 0.01 | 99 | 1005.6 |
| 20260507062416 | 53 | 334 | 2.0 | 3.0 | 0.00 | 0.01 | 0.01 | 99 | 1005.6 |
| 20260507060916 | 52 | 265 | 2.0 | 3.0 | 0.02 | 0.01 | 0.01 | 99 | 1005.3 |
| 20260507055416 | 52 | 66 | 1.0 | 4.0 | 0.00 | 0.00 | 0.00 | 99 | 1005.5 |
| 20260507053913 | 52 | 219 | 3.0 | 5.0 | 0.00 | 0.00 | 0.00 | 99 | 1005.8 |
| 20260507052412 | 53 | 180 | 1.0 | 4.0 | 0.00 | 0.00 | 0.00 | 99 | 1006.2 |
| 20260507050909 | 53 | 350 | 2.0 | 5.0 | 0.00 | 0.00 | 0.00 | 99 | 1006.3 |
| 20260507045404 | 53 | 15 | 1.0 | 4.0 | 0.00 | 0.00 | 0.00 | 99 | 1006.2 |
| 20260507043900 | 53 | 187 | 0.0 | 2.0 | 0.00 | 0.00 | 0.00 | 99 | 1006.5 |
| 20260507042355 | 53 | 277 | 3.0 | 5.0 | 0.00 | 0.00 | 0.00 | 99 | 1006.4 |
| 20260507040852 | 53 | 180 | 0.0 | 5.0 | 0.00 | 0.00 | 0.00 | 99 | 1006.2 |
| 20260507035350 | 54 | 183 | 3.0 | 3.0 | 0.00 | 0.13 | 0.13 | 99 | 1006.6 |
| 20260507033848 | 54 | 169 | 1.0 | 4.0 | 0.00 | 0.13 | 0.13 | 99 | 1006.7 |
| 20260507032344 | 54 | 7 | 2.0 | 2.0 | 0.00 | 0.13 | 0.13 | 99 | 1007.0 |
| 20260507030840 | 54 | 176 | 2.0 | 3.0 | 0.00 | 0.13 | 0.13 | 99 | 1006.7 |
| 20260507025337 | 54 | 34 | 2.0 | 5.0 | 0.00 | 0.13 | 0.13 | 99 | 1006.4 |
| 20260507023834 | 54 | 233 | 0.0 | 4.0 | 0.00 | 0.13 | 0.13 | 99 | 1006.7 |
| 20260507022329 | 54 | 257 | 2.0 | 5.0 | 0.00 | 0.13 | 0.13 | 99 | 1006.8 |
| 20260507020825 | 55 | 99 | 0.0 | 4.0 | 0.00 | 0.13 | 0.13 | 99 | 1006.5 |
| 20260507015322 | 55 | 305 | 3.0 | 11.0 | 0.00 | 0.13 | 0.13 | 99 | 1006.7 |
| 20260507013817 | 54 | 63 | 0.0 | 9.0 | 0.00 | 0.13 | 0.13 | 99 | 1007.0 |
| 20260507012314 | 54 | 214 | 3.0 | 7.0 | 0.00 | 0.13 | 0.13 | 99 | 1006.9 |
| 20260507010814 | 54 | 90 | 5.0 | 7.0 | 0.00 | 0.13 | 0.13 | 99 | 1007.1 |
| 20260507005309 | 54 | 270 | 5.0 | 9.0 | 0.00 | 0.13 | 0.13 | 99 | 1007.4 |
| 20260507003806 | 54 | 263 | 3.0 | 10.0 | 0.00 | 0.13 | 0.13 | 99 | 1007.0 |
| 20260507002306 | 54 | 221 | 2.0 | 11.0 | 0.00 | 0.13 | 0.13 | 99 | 1007.1 |
| 20260507000802 | 54 | 233 | 5.0 | 16.0 | 0.00 | 0.13 | 0.13 | 99 | 1007.1 |
| 20260506235256 | 55 | 199 | 8.0 | 14.0 | 0.00 | 0.13 | 0.13 | 99 | 1007.3 |
| 20260506233754 | 55 | 209 | 5.0 | 10.0 | 0.00 | 0.13 | 0.13 | 99 | 1007.1 |
| 20260506232253 | 54 | 289 | 3.0 | 6.0 | 0.00 | 0.13 | 0.13 | 99 | 1007.1 |
| 20260506230751 | 53 | 194 | 3.0 | 8.0 | 0.02 | 0.13 | 0.13 | 99 | 1007.1 |
| 20260506225248 | 54 | 4 | 2.0 | 6.0 | 0.00 | 0.13 | 0.13 | 99 | 1007.0 |
| 20260506223743 | 53 | 23 | 2.0 | 13.0 | 0.02 | 0.12 | 0.12 | 99 | 1007.0 |
| 20260506222238 | 53 | 219 | 3.0 | 4.0 | 0.07 | 0.11 | 0.11 | 99 | 1006.9 |
| 20260506220737 | 53 | 101 | 3.0 | 9.0 | 0.09 | 0.09 | 0.09 | 99 | 1007.2 |
| 20260506215236 | 53 | 222 | 3.0 | 10.0 | 0.07 | 0.07 | 0.07 | 99 | 1007.5 |
| 20260506213734 | 53 | 270 | 3.0 | 9.0 | 0.00 | 0.06 | 0.06 | 99 | 1007.7 |
| 20260506212230 | 54 | 293 | 2.0 | 9.0 | 0.02 | 0.05 | 0.05 | 99 | 1007.8 |
| 20260506210725 | 54 | 274 | 5.0 | 7.0 | 0.00 | 0.04 | 0.04 | 99 | 1008.0 |
| 20260506205220 | 54 | 197 | 0.0 | 10.0 | 0.02 | 0.04 | 0.04 | 99 | 1008.1 |
| 20260506203718 | 54 | 206 | 3.0 | 7.0 | 0.02 | 0.04 | 0.04 | 98 | 1008.4 |
| 20260506202214 | 54 | 315 | 2.0 | 8.0 | 0.00 | 0.03 | 0.03 | 97 | 1008.1 |
| 20260506200711 | 55 | 265 | 4.0 | 14.0 | 0.00 | 0.03 | 0.03 | 96 | 1008.5 |
| 20260506195207 | 56 | 206 | 7.0 | 12.0 | 0.02 | 0.03 | 0.03 | 96 | 1008.5 |
| 20260506193704 | 56 | 90 | 2.0 | 7.0 | 0.09 | 0.03 | 0.03 | 95 | 1008.5 |
| 20260506192200 | 58 | 10 | 3.0 | 10.0 | 0.00 | 0.01 | 0.01 | 91 | 1008.4 |